Seattle, WA
on Wednesday, February 27, 2013

Wednesday
Previous Day Next Day
Daily Summary
 ActualAverageRecord
Temperature
Mean Temperature °F 44°F  
Max Temperature 50°F 51°F 70°F (1968)
Min Temperature 40°F 37°F 20°F (1962)
Degree Days
Heating Degree Days 20 21  
Month to date heating degree days 551 585  
Since 1 July heating degree days 3125 3234  
Cooling Degree Days 0 0  
Month to date cooling degree days 0 0  
Year to date cooling degree days 0 0  
Moisture
Dew Point 40°F   
Average Humidity 79    
Maximum Humidity 92    
Minimum Humidity 66    
Precipitation
Precipitation 0.18 in 0.13 in 2.23 in (1972)
Month to date precipitation 1.26 3.38  
Year to date precipitation 5.42 8.95  
Snow
Snow 0.00 in in 1.50 in (1971)
Month to date snowfall 0.0  
Since 1 July snowfall 0.6  
Snow Depth 0.00 in   
Wind
Wind Speed 4 mph   
Max Wind Speed 17 mph   
Max Gust Speed 21 mph   
Visibility 9 miles   
Events Rain   

Key: T is trace of precipitation, MM is missing value
Source: NWS Daily Summary
Time(PST)TemperatureDew PointHumidity Pressure Visibility Wind DirectionWind SpeedGust SpeedPrecipitationEvents Conditions
12:53 AM 43.0°F 36.0°F 76% 30.24 in 6.0 miles South 5.8 mph - 0.02 in Rain Light Rain
1:53 AM 42.1°F 37.9°F 85% 30.26 in 10.0 miles West 6.9 mph - 0.01 in   Overcast
2:37 AM 42.8°F 37.4°F 81% 30.23 in 10.0 miles SW 12.7 mph - N/A   Mostly Cloudy
2:53 AM 43.0°F 37.0°F 80% 30.26 in 10.0 miles SSW 11.5 mph 20.7 mph N/A   Mostly Cloudy
3:53 AM 43.0°F 37.0°F 80% 30.26 in 10.0 miles SSW 12.7 mph - N/A   Overcast
4:53 AM 42.1°F 37.0°F 82% 30.28 in 10.0 miles SSW 6.9 mph - N/A   Overcast
5:53 AM 39.9°F 37.0°F 89% 30.31 in 10.0 miles South 5.8 mph - N/A   Overcast
6:53 AM 42.1°F 37.9°F 85% 30.32 in 10.0 miles Calm Calm - N/A   Overcast
7:53 AM 42.1°F 37.0°F 82% 30.32 in 10.0 miles Calm Calm - N/A   Overcast
8:53 AM 44.1°F 37.9°F 79% 30.32 in 10.0 miles Calm Calm - N/A   Mostly Cloudy
9:24 AM 46.4°F 39.2°F 76% 30.28 in 10.0 miles Calm Calm - N/A   Mostly Cloudy
9:44 AM 44.6°F 37.4°F 76% 30.28 in 10.0 miles SE 3.5 mph - N/A   Mostly Cloudy
9:53 AM 45.0°F 39.0°F 80% 30.30 in 10.0 miles SSE 3.5 mph - N/A   Mostly Cloudy
10:53 AM 46.9°F 37.9°F 71% 30.32 in 10.0 miles West 4.6 mph - N/A   Overcast
11:53 AM 48.0°F 37.0°F 66% 30.33 in 10.0 miles SSE 4.6 mph - N/A   Overcast
12:53 PM 48.0°F 37.9°F 68% 30.32 in 10.0 miles Calm Calm - N/A   Overcast
1:47 PM 48.2°F 39.2°F 71% 30.27 in 10.0 miles Variable 3.5 mph - N/A   Overcast
1:53 PM 48.9°F 39.0°F 69% 30.30 in 10.0 miles East 3.5 mph - N/A   Overcast
2:35 PM 48.2°F 39.2°F 71% 30.26 in 10.0 miles Calm Calm - N/A   Overcast
2:53 PM 48.9°F 39.0°F 69% 30.30 in 10.0 miles West 3.5 mph - N/A   Overcast
3:53 PM 48.0°F 39.9°F 74% 30.29 in 10.0 miles Calm Calm - N/A   Overcast
4:27 PM 46.4°F 39.2°F 76% 30.26 in 10.0 miles Calm Calm - 0.00 in Rain Light Rain
4:53 PM 46.0°F 42.1°F 86% 30.28 in 10.0 miles Calm Calm - 0.00 in Rain Light Rain
5:44 PM 44.6°F 42.8°F 93% 30.26 in 4.0 miles NNW 4.6 mph - 0.02 in Rain Rain
5:53 PM 45.0°F 42.1°F 90% 30.29 in 6.0 miles Calm Calm - 0.05 in Rain Light Rain
6:53 PM 45.0°F 42.1°F 90% 30.29 in 6.0 miles Calm Calm - 0.06 in Rain Light Rain
7:34 PM 46.4°F 42.8°F 87% 30.27 in 8.0 miles NE 8.1 mph - 0.03 in Rain Light Rain
7:53 PM 46.0°F 43.0°F 89% 30.30 in 7.0 miles NW 3.5 mph - 0.04 in Rain Light Rain
8:02 PM 44.6°F 42.8°F 93% 30.28 in 4.0 miles West 4.6 mph - 0.00 in Rain Rain
8:53 PM 45.0°F 42.1°F 90% 30.31 in 7.0 miles North 4.6 mph - 0.01 in Rain Light Rain
9:37 PM 44.6°F 42.8°F 93% 30.26 in 10.0 miles NNE 6.9 mph - 0.00 in   Overcast
9:53 PM 45.0°F 41.0°F 86% 30.30 in 10.0 miles NE 5.8 mph - 0.00 in   Overcast
10:15 PM 44.6°F 42.8°F 93% 30.27 in 10.0 miles North 5.8 mph - N/A   Overcast
10:53 PM 44.6°F 42.8°F 93% 30.27 in 7.0 miles NNE 8.1 mph - N/A   Overcast
11:38 PM 44.6°F 42.8°F 93% 30.26 in 7.0 miles North 4.6 mph - N/A   Overcast
11:53 PM 45.0°F 42.1°F 90% 30.28 in 7.0 miles NE 4.6 mph - N/A   Overcast
Moon Phase
Feb. 27 Mar. 04 Mar. 11 Mar. 19 Mar. 27
Sunrise:06:52 AM (PST) Moon Rise:08:33 PM (PST)2/27
Sunset:05:51 PM (PST) Moon Set:07:19 AM (PST)2/27

Copyright © 2014 The Weather Underground, Inc.